Location: Carlingford
(46.7848°N, 67.7474°W)
Time: 07:08:52
(UTC+00:00)

Tiangong - Visible Passes

Search period start: 02 December 2022 00:00
Search period end: 12 December 2022 00:00
Orbit: 385 x 394 km, 41.5° (Epoch: 01 December)

Date Brightness Start Highest point End Pass type
(mag) Time Alt. Az. Time Alt. Az. Time Alt. Az.
02 Dec 0.4 21:21:39 10° S 21:23:11 13° SSE 21:24:43 10° SE visible
02 Dec -0.3 22:56:45 10° SW 22:58:49 25° SSW 22:58:49 25° SSW visible
03 Dec -0.3 21:59:16 10° SW 22:01:54 24° SSE 22:03:46 15° ESE visible
03 Dec 1.1 23:35:34 10° WSW 23:36:06 13° WSW 23:36:06 13° WSW visible
04 Dec -0.8 22:37:56 10° WSW 22:40:49 31° S 22:41:06 30° SSE visible
05 Dec -0.5 21:40:28 10° SW 21:43:17 29° S 21:46:05 10° ESE visible
05 Dec 0.4 23:17:04 10° WSW 23:18:33 20° SW 23:18:33 20° SW visible
06 Dec -0.6 22:19:31 10° WSW 22:22:21 30° S 22:23:45 21° SE visible
07 Dec -0.5 21:22:04 10° WSW 21:24:56 31° S 21:27:49 10° ESE visible
07 Dec 0.0 22:58:58 10° WSW 23:01:27 21° SSW 23:01:27 21° SSW visible
08 Dec -0.2 22:01:25 10° WSW 22:04:09 26° S 22:06:53 10° SE visible
09 Dec 0.6 22:41:22 10° WSW 22:43:20 15° SSW 22:45:01 11° SSE visible
10 Dec 0.4 21:43:45 10° WSW 21:46:11 20° SSW 21:48:36 10° SSE visible
